Location: Boiro
(42.6475°N, 8.8834°W)
Time: 05:43:03
(UTC+01:00)

STRAND 1 - Visible Passes

Search period start: 25 January 2022 00:00
Search period end: 04 February 2022 00:00
Orbit: 768 x 780 km, 98.4° (Epoch: 24 January)

Date Brightness Start Highest point End Pass type
(mag) Time Alt. Az. Time Alt. Az. Time Alt. Az.
25 Jan ? 07:03:15 10° SE 07:07:49 34° ENE 07:12:24 10° N visible
25 Jan ? 19:15:24 10° ENE 19:16:28 11° E 19:17:31 10° E visible
25 Jan ? 20:54:00 34° NNE 20:56:20 89° ESE 21:01:29 10° SSW visible
25 Jan ? 22:34:21 13° NW 22:34:45 13° WNW 22:36:59 10° W visible
26 Jan ? 06:30:39 10° ESE 06:34:01 18° ENE 06:37:25 10° NNE visible
26 Jan ? 08:07:40 10° S 08:12:42 62° W 08:17:47 10° NNW visible
26 Jan ? 20:19:06 21° NE 20:22:08 43° E 20:27:02 10° S visible
26 Jan ? 21:59:28 21° NW 22:01:02 25° WNW 22:05:09 10° WSW visible
27 Jan ? 07:33:32 10° SSE 07:38:35 65° ENE 07:43:40 10° N visible
27 Jan ? 19:44:10 11° NE 19:47:46 21° E 19:51:40 10° SE visible
27 Jan ? 21:24:31 25° N 21:27:11 48° WNW 21:32:06 10° SW visible
28 Jan ? 07:00:08 10° SE 07:04:38 32° ENE 07:09:10 10° N visible
28 Jan ? 20:49:32 20° NNE 20:53:08 84° ESE 20:58:18 10° SSW visible
28 Jan ? 22:29:53 12° NW 22:31:35 14° WNW 22:34:06 10° W visible
29 Jan ? 06:27:39 10° E 06:30:52 17° ENE 06:34:05 10° NNE visible
29 Jan ? 08:04:25 10° S 08:09:29 66° WSW 08:14:36 10° NNW visible
29 Jan ? 20:14:28 12° NNE 20:18:55 41° E 20:23:46 10° SSE visible
29 Jan ? 21:54:49 15° NNW 21:57:53 26° WNW 22:02:06 10° WSW visible
30 Jan ? 07:30:22 10° SSE 07:35:23 61° ENE 07:40:27 10° N visible
30 Jan ? 19:40:46 10° NE 19:44:33 20° E 19:48:17 10° SE visible
30 Jan ? 21:19:38 14° N 21:23:59 51° WNW 21:28:58 10° SW visible
31 Jan ? 06:57:02 10° SE 07:01:27 31° ENE 07:05:55 10° N visible
31 Jan ? 20:44:45 10° NNE 20:49:56 79° ESE 20:55:06 10° S visible
31 Jan ? 22:25:41 10° NNW 22:28:26 15° WNW 22:31:10 10° W visible
01 Feb ? 06:24:39 10° E 06:27:42 16° ENE 06:30:46 10° NNE visible
01 Feb ? 08:01:12 10° S 08:06:17 70° WSW 08:11:26 10° NNW visible
01 Feb ? 20:10:54 10° NNE 20:15:43 38° E 20:20:29 10° SSE visible
01 Feb ? 21:50:23 10° N 21:54:43 28° WNW 21:59:02 10° WSW visible
02 Feb ? 07:27:12 10° SSE 07:32:11 57° ENE 07:37:14 10° N visible
02 Feb ? 19:37:42 10° NE 19:41:19 19° E 19:44:54 10° SE visible
02 Feb ? 21:15:46 10° N 21:20:49 54° WNW 21:25:49 10° SSW visible
03 Feb ? 06:53:57 10° SE 06:58:16 29° ENE 07:02:39 10° N visible
03 Feb ? 20:41:33 10° NNE 20:46:44 75° ESE 20:51:53 10° S visible
03 Feb ? 22:22:20 10° NNW 22:25:17 16° WNW 22:28:13 10° W visible
